Probability
3 0 0 0 0 0 0 0 0 0 0 0 0 0 0 0 0 0 0 0 0 0 0 0 0 3 3 3 3 3 3 3 3 3 3 3 3 3 6 0 0 0 0
0 0 0 0 0 0 0 0 0 0 0 0 0 0 0 0 0 0 0 0 0 0 0 0 3 3 3 0 0 0 0 0 0 0 0 0 0 0 3 0 3 0 0
0 0 0 0 0 0 0 0 0 0 0 0 0 0 0 0 0 0 0 0 0 0 0 0 0 0 0 0 0 0 0 0 0 0 0 0 0 3 3 3 0 0 0
0 0 0 0 0 0 0 0 0 0 0 0 0 0 0 0 0 0 0 0 0 0 0 0 0 0 0 0 0 0 0 0 0 0 0 0 3 0 3 3 0 0 0
0 0 0 0 0 0 0 0 0 0 0 0 0 0 0 0 0 0 0 0 0 0 0 0 0 0 0 0 0 0 0 0 0 0 3 0 0 3 3 3 0 0 0
0 0 0 0 0 0 0 0 0 0 0 0 0 0 0 0 0 0 0 0 0 0 0 0 0 0 0 0 0 0 0 0 0 0 3 0 0 0 3 3 3 0 0
0 0 0 0 0 0 0 0 0 0 0 0 0 0 0 0 0 0 0 0 0 0 0 0 0 0 0 0 0 0 0 0 0 0 3 3 0 3 3 3 3 0 0
0 0 0 0 0 0 0 0 0 0 0 0 0 0 0 0 0 0 0 0 0 0 0 0 0 0 0 0 0 0 0 0 0 0 3 3 3 3 0 0 0 0 0
0 0 0 0 0 0 0 0 0 0 0 0 0 0 0 0 0 0 0 0 0 0 0 0 0 0 0 0 0 0 0 0 0 0 0 0 0 0 0 0 0 0 0
0 0 0 0 0 0 0 0 0 0 0 0 0 0 0 0 0 0 0 0 0 0 0 0 0 0 0 0 0 0 0 0 0 0 0 0 0 0 0 0 0 0 0
0 0 0 0 0 0 0 0 0 0 0 0 0 0 0 0 0 0 0 0 0 0 0 0 0 0 0 0 0 0 0 0 0 0 0 0 0 0 3 3 0 0 0
0 0 0 0 0 0 0 0 0 0 0 0 0 0 0 0 0 0 0 0 0 0 0 0 0 0 0 0 0 0 0 0 0 0 0 0 0 0 0 0 0 0 0
0 0 0 0 0 0 0 0 0 0 0 0 0 0 0 0 0 0 0 0 0 0 0 0 0 0 0 0 0 0 0 0 0 0 0 0 0 0 0 0 0 0 0
0 0 0 0 0 0 0 0 0 0 0 0 0 0 0 0 0 0 0 0 0 0 0 0 0 0 0 0 0 0 0 0 0 0 0 0 0 0 0 0 0 0 0
0 0 0 0 0 0 0 0 0 0 0 0 0 0 0 0 0 0 0 0 0 0 0 0 0 0 0 0 0 0 0 0 0 0 0 0 0 0 0 0 0 0 0
0 0 0 0 0 0 0 0 0 0 0 0 0 0 0 0 0 0 0 0 0 0 0 0 0 0 0 0 0 0 0 0 0 0 0 0 0 0 0 0 0 0 0
0 0 0 0 0 0 0 0 0 0 0 0 0 0 0 0 0 0 0 0 0 0 0 0 0 0 0 0 0 0 0 0 0 0 0 0 0 0 0 0 0 0 0
0 0 0 0 0 0 0 0 0 0 0 0 0 0 0 0 0 0 0 0 0 0 0 0 0 0 0 0 0 0 0 0 0 0 0 0 0 0 0 0 0 0 0
0 0 0 0 0 0 0 0 0 0 0 0 0 0 0 0 0 0 0 0 0 0 0 0 0 0 0 0 0 0 0 0 0 0 0 0 0 0 0 0 0 0 0
0 0 0 0 0 0 0 0 0 0 0 0 0 0 0 0 0 0 0 0 0 0 0 0 0 0 0 0 0 0 0 0 0 0 0 0 0 0 0 0 0 0 0
0 0 0 0 0 0 0 0 0 0 0 0 0 0 0 0 0 0 0 0 0 0 0 0 0 0 0 0 0 0 0 0 0 0 0 0 0 0 0 0 0 0 0
0 0 0 0 0 0 0 0 0 0 0 0 0 0 0 0 0 0 0 0 0 0 0 0 0 0 0 0 0 0 0 0 0 0 0 0 0 0 0 0 0 0 0
0 0 0 0 0 0 0 0 0 0 0 0 0 0 0 0 0 0 0 0 0 0 0 0 0 0 0 0 0 0 0 0 0 0 0 0 0 0 0 0 0 0 0
0 0 0 0 0 0 0 0 0 0 0 0 0 0 0 0 0 0 0 0 0 0 0 0 0 0 0 0 0 0 0 0 0 0 0 0 0 0 0 0 0 0 0
0 0 0 0 0 0 0 0 0 0 0 0 0 0 0 0 0 0 0 0 0 0 0 0 0 0 0 0 0 0 0 0 0 0 0 0 0 0 0 0 0 0 0
0 0 0 0 0 0 0 0 0 0 0 0 0 0 0 0 0 0 0 0 0 0 0 0 0 0 0 0 0 0 0 0 0 0 0 0 0 0 0 0 0 0 0
Height
5767 5768 5769 5770 5771 5772 5773 5774 5775 5776 5777 5778 5779 5781 5782 5784 5785 5787 5789 5790 5792 5793 5794 5795 5796 5798 5799 5800 5801 5802 5802 5803 5804 5805 5806 5806 5807 5808 5809 5810 5810 5811 5812
5761 5762 5763 5764 5765 5765 5766 5767 5768 5769 5770 5771 5772 5774 5776 5777 5779 5780 5782 5784 5785 5786 5787 5789 5790 5791 5792 5793 5794 5795 5796 5796 5797 5798 5799 5799 5800 5801 5802 5802 5803 5804 5805
5754 5755 5756 5757 5758 5759 5760 5760 5761 5762 5763 5764 5765 5767 5768 5770 5772 5773 5775 5776 5778 5779 5780 5781 5783 5783 5784 5785 5786 5787 5788 5789 5789 5790 5791 5792 5792 5793 5794 5795 5796 5797 5797
5747 5748 5749 5750 5751 5752 5753 5753 5754 5755 5756 5757 5758 5759 5760 5762 5764 5765 5767 5768 5770 5771 5773 5774 5775 5775 5776 5777 5778 5779 5780 5780 5781 5782 5782 5783 5784 5785 5786 5787 5788 5789 5789
5740 5741 5742 5743 5744 5745 5746 5747 5747 5748 5748 5749 5750 5751 5752 5754 5755 5757 5758 5760 5761 5763 5764 5765 5766 5767 5768 5769 5769 5770 5771 5771 5772 5772 5773 5774 5775 5775 5777 5778 5779 5780 5781
5733 5734 5735 5736 5737 5737 5738 5739 5740 5740 5741 5742 5742 5743 5745 5746 5747 5748 5750 5751 5752 5754 5755 5756 5757 5758 5759 5760 5760 5761 5762 5762 5762 5762 5763 5764 5765 5765 5766 5768 5769 5770 5771
5725 5726 5727 5728 5729 5730 5730 5731 5731 5732 5733 5734 5735 5735 5736 5737 5739 5740 5741 5742 5743 5745 5746 5747 5748 5749 5749 5750 5751 5751 5752 5752 5752 5752 5752 5753 5754 5755 5756 5757 5758 5759 5760
5717 5719 5720 5721 5721 5722 5722 5722 5723 5723 5724 5725 5726 5727 5728 5730 5730 5731 5732 5733 5734 5735 5736 5737 5738 5739 5739 5740 5740 5741 5741 5741 5741 5741 5741 5742 5742 5743 5745 5746 5747 5748 5749
5709 5710 5711 5712 5713 5713 5714 5714 5714 5715 5715 5716 5717 5718 5719 5720 5722 5723 5723 5723 5724 5725 5726 5727 5728 5728 5729 5729 5729 5729 5729 5729 5729 5729 5729 5730 5731 5732 5733 5734 5735 5736 5737
5700 5701 5702 5704 5704 5705 5706 5705 5706 5706 5707 5707 5708 5709 5710 5710 5712 5713 5713 5713 5714 5714 5715 5716 5716 5717 5717 5717 5717 5717 5717 5717 5717 5717 5717 5717 5718 5719 5720 5722 5722 5723 5725
5691 5692 5694 5695 5696 5696 5696 5696 5697 5697 5698 5698 5699 5699 5699 5700 5701 5702 5703 5703 5703 5703 5704 5704 5704 5705 5705 5705 5705 5705 5705 5704 5704 5704 5704 5705 5705 5707 5708 5709 5710 5710 5711
5682 5683 5684 5685 5686 5687 5687 5687 5688 5688 5688 5689 5689 5689 5689 5690 5690 5691 5692 5692 5692 5692 5692 5692 5692 5692 5692 5692 5692 5692 5691 5691 5691 5691 5691 5692 5693 5693 5695 5695 5696 5697 5698
5672 5673 5674 5675 5676 5677 5677 5677 5678 5678 5678 5678 5679 5679 5679 5679 5679 5679 5680 5680 5681 5680 5680 5679 5679 5679 5679 5679 5678 5678 5678 5678 5678 5678 5678 5678 5679 5680 5681 5682 5683 5683 5684
5662 5663 5664 5665 5666 5666 5667 5667 5667 5668 5668 5668 5668 5668 5668 5667 5667 5667 5668 5668 5669 5669 5668 5667 5666 5666 5666 5666 5665 5665 5664 5664 5664 5664 5664 5665 5665 5666 5667 5667 5668 5669 5669
5651 5652 5653 5654 5655 5655 5656 5656 5656 5656 5657 5656 5656 5656 5656 5656 5655 5655 5655 5655 5656 5656 5656 5654 5654 5653 5653 5652 5652 5651 5651 5651 5650 5650 5651 5651 5651 5652 5653 5653 5653 5654 5655
5640 5641 5642 5643 5644 5645 5645 5645 5645 5645 5645 5645 5645 5645 5644 5644 5643 5643 5642 5642 5642 5643 5643 5642 5641 5640 5640 5639 5638 5638 5637 5637 5637 5637 5637 5637 5637 5638 5638 5638 5638 5639 5640
5629 5630 5631 5632 5633 5633 5633 5634 5634 5633 5633 5633 5633 5633 5632 5632 5631 5630 5630 5629 5629 5629 5630 5630 5629 5628 5627 5626 5625 5624 5623 5623 5623 5623 5623 5623 5623 5623 5623 5623 5623 5624 5624
5616 5618 5619 5620 5620 5621 5621 5622 5622 5621 5621 5621 5621 5620 5620 5619 5618 5618 5617 5616 5616 5616 5617 5617 5616 5615 5614 5613 5612 5611 5610 5609 5609 5609 5609 5609 5609 5609 5608 5608 5608 5609 5609
5604 5605 5606 5607 5608 5608 5609 5609 5609 5609 5609 5608 5608 5608 5607 5606 5606 5605 5604 5603 5603 5603 5603 5603 5603 5602 5601 5600 5599 5597 5596 5595 5595 5595 5595 5595 5594 5594 5593 5593 5593 5594 5594
5591 5592 5593 5594 5595 5595 5595 5596 5596 5596 5596 5595 5595 5594 5594 5593 5592 5591 5591 5590 5590 5590 5590 5590 5590 5589 5588 5586 5585 5584 5583 5581 5581 5581 5580 5580 5580 5579 5579 5579 5579 5579 5578
5578 5579 5580 5581 5581 5582 5582 5582 5582 5582 5582 5582 5581 5581 5580 5579 5578 5578 5577 5577 5577 5577 5577 5577 5577 5576 5575 5573 5572 5570 5569 5568 5567 5567 5567 5566 5566 5566 5565 5564 5563 5563 5563
5565 5566 5567 5567 5568 5568 5568 5568 5569 5568 5568 5568 5568 5567 5566 5565 5564 5564 5564 5564 5564 5564 5564 5563 5563 5562 5562 5560 5559 5557 5556 5555 5555 5555 5553 5552 5551 5551 5550 5549 5548 5548 5547
5553 5553 5554 5554 5554 5554 5555 5555 5554 5554 5554 5554 5553 5553 5552 5551 5550 5550 5550 5550 5550 5550 5550 5550 5550 5549 5548 5548 5546 5545 5543 5541 5540 5539 5539 5539 5537 5536 5535 5534 5533 5532 5532
5539 5540 5540 5541 5541 5541 5541 5541 5541 5541 5540 5540 5539 5539 5538 5537 5537 5536 5537 5537 5536 5536 5536 5536 5536 5536 5534 5533 5533 5532 5530 5528 5526 5525 5524 5525 5523 5522 5520 5518 5516 5516 5515
5526 5526 5526 5527 5527 5527 5527 5526 5526 5526 5526 5526 5525 5524 5524 5524 5523 5523 5523 5523 5523 5522 5522 5521 5521 5521 5520 5519 5518 5517 5516 5514 5513 5511 5509 5509 5508 5507 5505 5502 5500 5499 5498
5512 5512 5512 5513 5512 5512 5512 5512 5511 5512 5512 5511 5510 5510 5510 5509 5509 5508 5509 5509 5509 5508 5508 5507 5507 5506 5506 5505 5503 5503 5501 5500 5498 5497 5494 5493 5492 5490 5490 5488 5485 5483 5482
Wind_Speed
26 26 26 26 26 26 26 26 26 27 27 28 28 28 27 27 27 27 27 27 27 26 26 26 26 26 26 27 27 27 27 27 27 27 27 27 28 28 28 29 28 28 29
28 27 27 27 27 27 27 27 28 28 28 28 28 28 29 28 28 29 29 29 29 28 28 28 28 29 28 28 29 29 29 30 30 30 30 29 29 30 31 30 30 30 30
29 28 28 28 28 28 28 28 29 29 29 29 30 30 30 30 30 31 31 31 31 31 31 30 30 31 31 31 31 31 31 32 32 32 32 31 31 32 33 33 33 32 32
30 30 29 28 29 28 28 28 28 29 30 29 29 30 30 31 32 33 33 33 33 33 33 32 32 32 32 33 33 33 33 33 34 34 34 34 33 33 34 34 34 34 34
30 30 30 29 29 29 29 28 28 28 29 30 30 30 31 31 32 33 33 34 34 35 34 34 34 34 35 35 35 34 35 35 35 36 36 37 37 36 36 36 37 37 36
31 30 30 29 29 30 30 30 30 30 30 30 31 31 32 32 33 33 34 35 35 36 36 36 36 36 36 36 36 37 37 37 37 38 39 39 39 39 39 39 39 40 40
31 31 31 30 30 30 31 31 31 31 31 31 31 32 33 33 33 34 34 35 36 36 37 38 38 38 38 39 39 39 40 40 40 40 40 41 41 41 41 41 41 42 42
33 33 33 32 32 31 32 32 33 32 32 33 33 33 33 34 34 34 35 35 36 36 37 38 39 40 41 41 41 42 43 43 43 43 42 43 42 42 43 43 43 44 43
34 34 34 33 33 32 33 34 34 33 33 33 33 33 34 35 36 36 36 37 37 38 39 39 40 41 42 43 43 44 44 45 45 45 44 44 44 43 44 44 45 45 45
36 35 34 34 34 34 34 35 35 35 35 35 35 35 36 37 38 38 38 38 39 40 41 42 42 43 44 44 45 46 46 46 47 47 46 45 45 45 44 45 46 46 46
37 37 36 36 35 35 35 36 36 37 37 37 37 37 38 38 39 39 40 41 42 42 43 44 44 44 45 45 46 46 47 47 48 48 48 47 47 47 46 46 47 47 47
38 38 38 37 36 37 37 37 37 38 38 39 39 39 39 39 40 41 41 42 43 44 45 45 46 46 46 46 46 47 48 48 48 48 49 49 49 48 48 47 48 48 48
40 39 39 39 39 39 39 39 39 38 39 39 40 40 41 41 42 42 43 43 44 45 46 47 48 47 47 47 47 47 48 49 49 49 50 50 50 49 50 49 49 50 50
41 41 41 40 40 40 41 41 41 41 41 41 41 42 42 42 42 43 44 44 45 46 46 47 47 47 47 47 47 47 48 49 49 50 50 50 51 51 51 51 51 50 50
42 42 42 42 42 41 41 41 42 42 42 42 42 43 43 43 44 45 46 46 46 46 46 47 47 47 48 48 49 48 48 49 49 50 50 51 52 52 52 52 52 52 52
44 44 45 44 44 44 43 42 42 42 43 43 44 44 44 45 45 46 47 47 48 47 47 47 48 48 48 49 49 49 49 49 49 49 50 50 51 51 52 52 53 52 53
46 47 48 47 46 46 46 46 45 45 45 45 46 46 46 46 47 46 47 47 47 47 47 47 48 48 48 49 49 49 50 49 50 50 50 50 51 52 51 52 52 52 53
48 48 49 49 48 48 48 48 47 47 47 47 47 48 48 48 49 48 48 48 48 48 48 47 48 48 49 49 50 50 50 51 50 50 50 50 51 52 52 52 52 52 52
48 48 49 49 50 49 49 49 49 49 49 49 49 49 50 50 49 49 48 49 49 49 49 48 48 49 50 50 50 51 51 51 51 51 51 51 51 52 52 52 52 53 53
48 48 48 49 49 50 51 51 50 50 50 50 50 50 50 50 50 49 49 49 49 49 49 49 49 49 50 50 50 51 50 51 51 50 51 51 51 52 52 52 51 51 53
47 47 48 48 48 49 51 51 51 51 51 51 51 51 50 50 50 50 49 48 48 49 49 49 49 49 48 49 49 50 50 50 50 50 50 50 50 51 52 52 52 51 52
46 46 47 48 49 49 50 50 50 50 50 50 50 49 49 49 49 49 49 49 48 48 48 48 48 48 48 48 49 49 48 48 49 49 50 50 51 51 52 53 53 53 52
46 46 47 47 48 49 50 50 50 50 49 48 48 48 48 49 49 49 49 49 49 49 49 49 48 49 49 49 48 48 49 50 50 50 51 51 52 52 53 54 54 54 54
47 47 47 47 48 48 49 49 49 50 49 49 48 48 49 49 49 49 49 49 50 50 50 50 50 50 50 50 50 50 51 51 51 52 52 52 53 53 54 56 56 55 54
47 48 48 49 49 49 49 49 49 49 49 49 49 49 49 49 49 49 49 50 50 50 50 51 51 51 51 51 51 51 51 51 51 52 53 53 53 53 54 55 56 56 55
47 48 48 49 49 49 50 50 49 50 49 50 49 49 49 49 49 49 49 50 50 51 51 52 52 52 52 52 52 52 52 52 52 53 54 54 54 55 54 55 55 55 54
Wind_Direction
258 260 261 262 261 260 260 259 261 257 256 256 256 257 257 257 257 257 257 258 258 259 260 261 262 262 261 261 261 262 262 262 263 263 263 263 261 261 261 262 263 263 264
258 259 261 262 262 261 260 260 260 258 257 257 258 259 258 258 257 257 258 258 259 259 260 260 262 264 264 264 265 265 265 264 264 264 264 264 262 262 262 262 263 263 263
258 260 261 262 262 263 262 261 260 259 259 259 259 260 259 259 258 258 257 258 259 260 260 261 263 264 265 266 267 268 267 266 265 264 265 265 264 263 263 263 263 263 263
258 260 261 262 262 262 262 262 262 261 260 259 259 259 259 259 259 258 258 258 259 260 261 262 263 264 265 266 267 268 268 267 266 265 264 265 264 264 263 263 263 263 264
258 260 261 262 261 261 262 262 261 262 261 259 259 259 259 259 259 259 259 259 260 261 262 263 264 264 265 266 266 267 268 268 268 266 265 265 265 265 265 264 264 263 264
257 258 260 262 262 261 262 262 262 262 262 261 260 260 260 260 260 261 261 261 261 261 261 263 264 264 265 266 267 268 269 271 270 269 267 266 265 265 266 264 264 264 264
256 257 259 261 262 262 263 263 263 263 262 262 262 263 263 262 263 264 263 262 262 263 263 263 263 265 266 267 268 269 271 272 272 271 270 268 266 265 265 264 265 265 264
255 256 258 261 263 263 263 264 264 262 263 263 264 265 264 262 263 265 264 264 264 264 264 264 264 265 267 268 269 271 272 272 272 272 270 268 266 265 265 265 265 265 265
256 258 259 261 264 265 265 264 263 262 264 264 264 266 265 264 263 265 265 265 265 265 265 266 267 268 268 269 271 272 272 273 272 271 270 268 267 266 266 266 266 266 266
256 257 259 261 263 265 264 263 262 263 264 265 265 265 266 266 265 265 265 265 266 266 267 268 269 270 270 271 273 273 272 272 271 271 270 268 267 267 266 266 267 267 267
256 257 258 260 262 264 264 264 263 264 266 266 267 267 267 267 266 265 265 266 267 268 268 269 270 271 272 273 273 273 272 272 271 271 270 268 267 267 267 266 266 267 267
256 257 257 259 263 265 265 265 265 266 267 268 268 269 269 268 267 267 266 267 268 269 270 271 271 272 272 274 274 273 273 272 271 271 270 268 267 267 267 267 267 268 267
256 257 257 259 262 264 265 266 266 267 268 269 269 270 270 270 269 268 267 268 269 270 271 272 273 273 273 274 274 273 273 272 271 271 270 269 267 268 267 267 268 268 268
256 257 258 259 262 263 265 266 267 267 268 269 270 271 271 271 271 269 268 269 270 271 272 272 273 274 273 274 275 274 273 272 272 271 270 269 268 268 268 268 268 268 267
257 258 259 260 261 264 265 265 267 268 269 269 270 271 270 271 272 271 270 270 271 271 272 272 273 274 274 275 275 275 274 273 272 272 271 270 269 268 268 268 269 269 268
258 257 259 261 262 263 265 266 267 268 269 270 270 271 271 271 272 273 272 271 271 272 272 272 273 274 275 276 277 276 275 274 272 272 272 271 269 269 270 270 270 270 270
259 259 259 260 261 262 265 266 267 268 269 271 271 271 272 273 273 273 273 272 272 272 272 273 274 274 275 276 278 277 275 274 273 272 272 271 270 269 271 270 270 270 270
259 260 260 260 262 263 265 266 268 268 270 270 271 272 272 273 274 273 273 273 272 272 273 273 274 275 276 277 278 277 276 275 274 273 272 272 271 270 271 270 270 271 271
260 261 261 261 262 263 264 266 267 268 269 270 271 272 273 273 274 274 274 273 273 272 273 273 274 276 276 277 278 277 276 275 274 274 273 273 272 272 271 271 271 271 271
260 262 262 263 263 264 265 267 268 268 269 270 271 272 272 273 273 274 274 273 273 272 272 272 274 275 276 277 278 278 277 277 275 274 274 273 273 272 272 271 272 272 272
260 261 262 263 264 265 265 267 267 268 269 270 271 272 272 272 272 273 273 273 273 272 272 273 273 275 277 278 278 279 278 278 275 274 275 273 274 274 273 274 274 273 273
261 262 262 263 264 264 265 267 268 269 270 270 270 271 271 271 272 272 273 273 273 272 272 273 273 274 275 277 278 278 278 278 276 275 275 274 274 275 275 275 276 275 274
262 262 262 263 264 265 266 267 268 269 270 270 270 270 270 271 271 271 272 272 272 272 272 273 272 273 275 276 277 278 279 278 277 275 275 275 275 276 277 277 277 277 275
263 263 263 263 264 266 266 267 268 269 270 271 271 270 271 271 271 271 270 271 272 272 272 272 272 273 275 276 277 278 279 279 278 276 276 276 276 276 277 278 277 277 275
264 264 265 265 265 265 267 268 269 270 270 271 271 271 271 271 271 271 271 271 272 272 272 273 274 274 274 276 277 278 278 278 278 277 277 278 277 278 277 277 277 276 275
266 266 266 266 267 267 267 268 269 269 270 271 271 271 271 270 270 271 271 271 271 272 272 274 275 275 275 276 276 277 278 278 279 278 278 278 279 279 278 277 276 275 274